FW0954 Weather Reports


time (UTC)temp
F
wind
direction
speed
knots
gust
knots
rain 1hr
in
rain 24hr
in
rain mn
in
humidity
%
barometer
mb
20260505003001 79 187 4.3 12.2 0.00 0.00 0.00 67 1006.3
20260505002502 79 186 5.2 10.4 0.00 0.00 0.00 67 1006.5
20260505002002 79 189 6.1 11.3 0.00 0.00 0.00 67 1006.6
20260505001502 79 192 6.1 13.0 0.00 0.00 0.00 67 1006.6
20260505001001 79 188 6.1 13.0 0.00 0.00 0.00 67 1006.6
20260505000502 79 183 6.1 13.0 0.00 0.00 0.00 67 1006.5
20260505000002 79 188 6.1 14.8 0.00 0.00 0.00 66 1006.6
20260504235502 79 192 6.1 14.8 0.00 0.00 0.00 66 1006.7
20260504235002 79 189 5.2 14.8 0.00 0.00 0.00 66 1006.8
20260504234501 79 190 6.1 15.6 0.00 0.00 0.00 66 1007.0
20260504234002 79 190 6.1 15.6 0.00 0.00 0.00 66 1006.8
20260504233501 79 191 5.2 13.9 0.00 0.00 0.00 65 1006.9
20260504233002 80 188 5.2 12.2 0.00 0.00 0.00 65 1006.8
20260504232501 80 184 6.1 14.8 0.00 0.00 0.00 65 1006.8
20260504232002 80 181 6.1 14.8 0.00 0.00 0.00 65 1006.8
20260504231502 80 182 5.2 13.0 0.00 0.00 0.00 64 1006.9
20260504231002 81 190 6.1 13.9 0.00 0.00 0.00 64 1007.0
20260504230502 81 194 6.1 15.6 0.00 0.00 0.00 64 1007.2
20260504230002 81 186 6.1 15.6 0.00 0.00 0.00 63 1007.3
20260504225502 81 183 6.1 16.5 0.00 0.00 0.00 63 1007.4
20260504225002 81 186 6.1 16.5 0.00 0.00 0.00 63 1007.4
20260504224501 81 190 6.1 14.8 0.00 0.00 0.00 63 1007.3
20260504224002 81 191 7.0 16.5 0.00 0.00 0.00 63 1007.3
20260504222001 82 187 5.2 13.9 0.00 0.00 0.00 63 1007.3
20260504221502 81 184 5.2 13.0 0.00 0.00 0.00 63 1007.4
20260504220502 81 183 5.2 13.0 0.00 0.00 0.00 64 1007.7
20260504220002 81 186 5.2 12.2 0.00 0.00 0.00 64 1007.6
20260504215501 81 186 6.1 16.5 0.00 0.00 0.00 64 1007.7
20260504215002 81 186 6.1 16.5 0.00 0.00 0.00 63 1007.8
20260504214502 81 189 5.2 12.2 0.00 0.00 0.00 63 1007.9
20260504214001 81 185 6.1 14.8 0.00 0.00 0.00 63 1007.9
20260504213501 81 188 6.1 14.8 0.00 0.00 0.00 62 1008.1
20260504213002 82 189 6.1 12.2 0.00 0.00 0.00 61 1008.1
20260504212502 82 186 6.1 13.9 0.00 0.00 0.00 61 1008.2
20260504212002 82 189 6.1 13.9 0.00 0.00 0.00 60 1008.4
20260504211502 82 193 5.2 11.3 0.00 0.00 0.00 61 1008.3
20260504210003 82 189 5.2 13.9 0.00 0.00 0.00 60 1008.6
20260504205501 82 187 4.3 13.0 0.00 0.00 0.00 61 1008.7
20260504204502 82 193 4.3 13.0 0.00 0.00 0.00 60 1008.8
20260504204002 82 182 5.2 14.8 0.00 0.00 0.00 61 1009.0
20260504203502 81 182 6.1 14.8 0.00 0.00 0.00 61 1009.0
20260504203002 81 183 6.1 17.4 0.00 0.00 0.00 60 1009.1
20260504202001 81 193 7.0 14.8 0.00 0.00 0.00 58 1009.5
20260504201502 81 191 6.1 15.6 0.00 0.00 0.00 58 1009.6
20260504201002 82 190 6.1 15.6 0.00 0.00 0.00 58 1009.7
20260504200502 81 189 6.1 14.8 0.00 0.00 0.00 58 1009.8
20260504200002 81 183 5.2 12.2 0.00 0.00 0.00 58 1009.8
20260504195002 81 188 7.0 13.9 0.00 0.00 0.00 58 1009.9
20260504194502 81 185 7.0 14.8 0.00 0.00 0.00 57 1010.0
20260504194002 81 192 6.1 14.8 0.00 0.00 0.00 57 1010.0
20260504193502 82 193 5.2 13.0 0.00 0.00 0.00 57 1010.2
20260504193002 82 191 5.2 13.0 0.00 0.00 0.00 57 1010.2
20260504192502 81 191 5.2 13.0 0.00 0.00 0.00 57 1010.5
20260504192002 81 188 5.2 14.8 0.00 0.00 0.00 58 1010.4
20260504190502 80 192 7.0 17.4 0.00 0.00 0.00 57 1010.7
20260504190002 81 195 6.1 14.8 0.00 0.00 0.00 57 1010.7
20260504185502 81 196 4.3 13.0 0.00 0.00 0.00 56 1010.7
20260504185002 80 194 5.2 13.0 0.00 0.00 0.00 57 1010.9
20260504184502 80 192 7.0 15.6 0.00 0.00 0.00 57 1010.9
20260504184003 80 186 7.0 17.4 0.00 0.00 0.00 56 1011.0
20260504183502 80 190 6.1 17.4 0.00 0.00 0.00 56 1011.1
20260504183002 80 193 6.1 17.4 0.00 0.00 0.00 56 1011.1
20260504182502 80 187 6.1 17.4 0.00 0.00 0.00 55 1011.4
20260504182002 80 191 5.2 14.8 0.00 0.00 0.00 55 1011.4
20260504181502 80 193 5.2 12.2 0.00 0.00 0.00 54 1011.3
20260504181002 80 182 5.2 15.6 0.00 0.00 0.00 54 1011.3
20260504180502 80 185 4.3 15.6 0.00 0.00 0.00 54 1011.4
20260504180002 79 194 5.2 12.2 0.00 0.00 0.00 56 1011.4
20260504175502 79 191 6.1 17.4 0.00 0.00 0.00 55 1011.6
20260504175002 79 191 6.1 17.4 0.00 0.00 0.00 54 1011.8
20260504174502 78 194 7.0 13.9 0.00 0.00 0.00 55 1011.8
20260504174002 78 191 7.0 13.9 0.00 0.00 0.00 56 1011.8
20260504173503 78 185 6.1 14.8 0.00 0.00 0.00 55 1011.8
20260504173002 78 189 4.3 14.8 0.00 0.00 0.00 56 1011.9
20260504172503 78 197 5.2 12.2 0.00 0.00 0.00 56 1012.1
20260504172003 77 189 6.1 13.0 0.00 0.00 0.00 56 1012.3
20260504171502 77 184 5.2 13.0 0.00 0.00 0.00 56 1012.5
20260504170502 77 192 7.0 16.5 0.00 0.00 0.00 58 1012.7
20260504151003 70 193 7.0 13.9 0.00 0.00 0.00 69 1013.6
20260504150502 70 189 6.1 17.4 0.00 0.00 0.00 69 1013.4
20260504141002 67 198 4.3 10.4 0.00 0.00 0.00 73 1013.8
20260504140503 67 204 4.3 12.2 0.00 0.00 0.00 74 1014.0
20260504130503 63 196 3.5 8.7 0.00 0.00 0.00 79 1013.9
20260504110503 61 194 1.7 5.2 0.00 0.00 0.00 81 1013.4
20260504100503 61 194 2.6 5.2 0.00 0.00 0.00 78 1013.7
20260504082003 64 185 3.5 7.8 0.00 0.00 0.00 71 1014.1
20260504081504 63 193 3.5 8.7 0.00 0.00 0.00 71 1014.1
20260504081003 63 198 2.6 8.7 0.00 0.00 0.00 71 1014.1
20260504050004 67 184 1.7 5.2 0.00 0.00 0.00 64 1016.0
20260504045503 67 183 1.7 6.1 0.00 0.00 0.00 64 1016.0
20260504045004 67 182 1.7 6.1 0.00 0.00 0.00 64 1016.1
20260504044504 67 182 1.7 4.3 0.00 0.00 0.00 63 1016.1
20260504044002 68 188 1.7 6.1 0.00 0.00 0.00 63 1016.1
20260504043502 68 193 2.6 6.1 0.00 0.00 0.00 63 1016.1
20260504043002 68 192 1.7 4.3 0.00 0.00 0.00 63 1016.1
20260504042502 68 191 1.7 5.2 0.00 0.00 0.00 62 1016.1
20260504042002 68 189 2.6 6.1 0.00 0.00 0.00 62 1016.1
20260504041002 68 185 1.7 5.2 0.00 0.00 0.00 62 1016.1
20260504040002 68 183 1.7 6.1 0.00 0.00 0.00 61 1016.1
20260504035502 68 183 1.7 6.1 0.00 0.00 0.00 61 1016.1
20260504035002 68 191 1.7 6.1 0.00 0.00 0.00 61 1016.1
20260504034503 68 192 1.7 6.1 0.00 0.00 0.00 61 1016.2
20260504034002 69 185 1.7 5.2 0.00 0.00 0.00 61 1016.1
20260504032502 69 186 1.7 5.2 0.00 0.00 0.00 60 1016.0
20260504032003 69 184 1.7 3.5 0.00 0.00 0.00 60 1016.1
20260504031502 69 185 0.9 3.5 0.00 0.00 0.00 60 1016.0
20260504031002 69 188 0.9 3.5 0.00 0.00 0.00 59 1016.0
20260504030002 70 184 1.7 5.2 0.00 0.00 0.00 58 1015.8
20260504025002 70 181 1.7 5.2 0.00 0.00 0.00 58 1015.9
20260504024502 70 185 1.7 4.3 0.00 0.00 0.00 58 1015.9
20260504024002 70 189 1.7 5.2 0.00 0.00 0.00 57 1015.9
20260504023002 71 186 1.7 4.3 0.00 0.00 0.00 56 1016.0
20260504022502 71 182 1.7 4.3 0.00 0.00 0.00 56 1016.0
20260504022003 71 177 1.7 4.3 0.00 0.00 0.00 56 1015.9
20260504021502 72 178 1.7 4.3 0.00 0.00 0.00 56 1015.9
20260504021002 72 190 1.7 5.2 0.00 0.00 0.00 55 1015.8
20260504020503 72 202 1.7 5.2 0.00 0.00 0.00 55 1015.8
20260504020002 72 192 1.7 4.3 0.00 0.00 0.00 55 1015.8
20260504015502 72 176 1.7 4.3 0.00 0.00 0.00 54 1015.7
20260504015002 73 184 1.7 5.2 0.00 0.00 0.00 54 1015.7
20260504014502 73 190 0.9 5.2 0.00 0.00 0.00 53 1015.8
20260504014002 73 189 0.9 2.6 0.00 0.00 0.00 53 1015.7
20260504013502 74 187 0.9 4.3 0.00 0.00 0.00 52 1015.7
20260504013002 74 185 1.7 4.3 0.00 0.00 0.00 51 1015.7
20260504012502 74 187 1.7 4.3 0.00 0.00 0.00 51 1015.7
20260504012002 74 188 1.7 4.3 0.00 0.00 0.00 50 1015.7
20260504011002 75 189 1.7 5.2 0.00 0.00 0.00 48 1015.6
20260504010502 76 190 1.7 6.1 0.00 0.00 0.00 48 1015.5
20260504010002 76 186 2.6 6.1 0.00 0.00 0.00 47 1015.5
20260504005002 76 192 2.6 8.7 0.00 0.00 0.00 45 1015.6
20260504004502 77 194 1.7 7.8 0.00 0.00 0.00 45 1015.5
20260504004003 78 185 1.7 7.8 0.00 0.00 0.00 44 1015.5
20260504003502 78 188 3.5 9.6 0.00 0.00 0.00 43 1015.5